Year,Month,Day,Hour,Minute,Value (Times are PST for temperature in C)
2014,06,17,00,00,11.40
2014,06,17,00,01,11.40
2014,06,17,00,02,11.40
2014,06,17,00,03,11.40
2014,06,17,00,04,11.40
2014,06,17,00,05,11.40
2014,06,17,00,06,11.30
2014,06,17,00,07,11.30
2014,06,17,00,08,11.30
2014,06,17,00,09,11.30
2014,06,17,00,10,11.30
2014,06,17,00,11,11.30
2014,06,17,00,12,11.40
2014,06,17,00,13,11.40
2014,06,17,00,14,11.40
2014,06,17,00,15,11.40
2014,06,17,00,16,11.40
2014,06,17,00,17,11.40
2014,06,17,00,18,11.40
2014,06,17,00,19,11.40
2014,06,17,00,20,11.40
2014,06,17,00,21,11.40
2014,06,17,00,22,11.40
2014,06,17,00,23,11.40
2014,06,17,00,24,11.40
2014,06,17,00,25,11.30
2014,06,17,00,26,11.30
2014,06,17,00,27,11.40
2014,06,17,00,28,11.30
2014,06,17,00,29,11.30
2014,06,17,00,30,11.30
2014,06,17,00,31,11.30
2014,06,17,00,32,11.30
2014,06,17,00,33,11.30
2014,06,17,00,34,11.30
2014,06,17,00,35,11.30
2014,06,17,00,36,11.30
2014,06,17,00,37,11.20
2014,06,17,00,38,11.20
2014,06,17,00,39,11.20
2014,06,17,00,40,11.20
2014,06,17,00,41,11.20
2014,06,17,00,42,11.20
2014,06,17,00,43,11.10
2014,06,17,00,44,11.10
2014,06,17,00,45,11.10
2014,06,17,00,46,11.10
2014,06,17,00,47,11.10
2014,06,17,00,48,11.00
2014,06,17,00,49,11.00
2014,06,17,00,50,11.00
2014,06,17,00,51,11.00
2014,06,17,00,52,10.90
2014,06,17,00,53,10.90
2014,06,17,00,54,10.90
2014,06,17,00,55,10.90
2014,06,17,00,56,10.90
2014,06,17,00,57,10.80
2014,06,17,00,58,10.80
2014,06,17,00,59,10.80
2014,06,17,01,00,10.80
2014,06,17,01,01,10.70
2014,06,17,01,02,10.70
2014,06,17,01,03,10.70
2014,06,17,01,04,10.70
2014,06,17,01,05,10.70
2014,06,17,01,06,10.70
2014,06,17,01,07,10.70
2014,06,17,01,08,10.70
2014,06,17,01,09,10.80
2014,06,17,01,10,10.80
2014,06,17,01,11,10.80
2014,06,17,01,12,10.80
2014,06,17,01,13,10.80
2014,06,17,01,14,10.80
2014,06,17,01,15,10.80
2014,06,17,01,16,10.80
2014,06,17,01,17,10.70
2014,06,17,01,18,10.70
2014,06,17,01,19,10.70
2014,06,17,01,20,10.70
2014,06,17,01,21,10.70
2014,06,17,01,22,10.70
2014,06,17,01,23,10.70
2014,06,17,01,24,10.70
2014,06,17,01,25,10.70
2014,06,17,01,26,10.70
2014,06,17,01,27,10.70
2014,06,17,01,28,10.70
2014,06,17,01,29,10.70
2014,06,17,01,30,10.70
2014,06,17,01,31,10.70
2014,06,17,01,32,10.70
2014,06,17,01,33,10.60
2014,06,17,01,34,10.60
2014,06,17,01,35,10.60
2014,06,17,01,36,10.60
2014,06,17,01,37,10.60
2014,06,17,01,38,10.60
2014,06,17,01,39,10.60
2014,06,17,01,40,10.50
2014,06,17,01,41,10.50
2014,06,17,01,42,10.50
2014,06,17,01,43,10.50
2014,06,17,01,44,10.40
2014,06,17,01,45,10.40
2014,06,17,01,46,10.40
2014,06,17,01,47,10.40
2014,06,17,01,48,10.30
2014,06,17,01,49,10.30
2014,06,17,01,50,10.30
2014,06,17,01,51,10.30
2014,06,17,01,52,10.20
2014,06,17,01,53,10.20
2014,06,17,01,54,10.20
2014,06,17,01,55,10.20
2014,06,17,01,56,10.20
2014,06,17,01,57,10.20
2014,06,17,01,58,10.10
2014,06,17,01,59,10.10
2014,06,17,02,00,10.10
2014,06,17,02,01,10.10
2014,06,17,02,02,10.10
2014,06,17,02,03,10.10
2014,06,17,02,04,10.10
2014,06,17,02,05,10.10
2014,06,17,02,06,10.10
2014,06,17,02,07,10.10
2014,06,17,02,08,10.10
2014,06,17,02,09,10.10
2014,06,17,02,10,10.10
2014,06,17,02,11,10.00
2014,06,17,02,12,10.00
2014,06,17,02,13,10.00
2014,06,17,02,14,10.00
2014,06,17,02,15,10.00
2014,06,17,02,16,10.10
2014,06,17,02,17,10.10
2014,06,17,02,18,10.10
2014,06,17,02,19,10.10
2014,06,17,02,20,10.10
2014,06,17,02,21,10.10
2014,06,17,02,22,10.10
2014,06,17,02,23,10.10
2014,06,17,02,24,10.10
2014,06,17,02,25,10.10
2014,06,17,02,26,10.00
2014,06,17,02,27,10.00
2014,06,17,02,28,10.00
2014,06,17,02,29,10.00
2014,06,17,02,30,10.00
2014,06,17,02,31,10.00
2014,06,17,02,32,9.90
2014,06,17,02,33,9.90
2014,06,17,02,34,9.90
2014,06,17,02,35,9.90
2014,06,17,02,36,9.90
2014,06,17,02,37,9.90
2014,06,17,02,38,9.90
2014,06,17,02,39,9.90
2014,06,17,02,40,9.80
2014,06,17,02,41,9.80
2014,06,17,02,42,9.80
2014,06,17,02,43,9.80
2014,06,17,02,44,9.80
2014,06,17,02,45,9.80
2014,06,17,02,46,9.80
2014,06,17,02,47,9.80
2014,06,17,02,48,9.80
2014,06,17,02,49,9.80
2014,06,17,02,50,9.80
2014,06,17,02,51,9.80
2014,06,17,02,52,9.80
2014,06,17,02,53,9.80
2014,06,17,02,54,9.80
2014,06,17,02,55,9.70
2014,06,17,02,56,9.80
2014,06,17,02,57,9.80
2014,06,17,02,58,9.80
2014,06,17,02,59,9.80
2014,06,17,03,00,9.80
2014,06,17,03,01,9.80
2014,06,17,03,02,9.80
2014,06,17,03,03,9.70
2014,06,17,03,04,9.70
2014,06,17,03,05,9.70
2014,06,17,03,06,9.70
2014,06,17,03,07,9.70
2014,06,17,03,08,9.60
2014,06,17,03,09,9.60
2014,06,17,03,10,9.60
2014,06,17,03,11,9.60
2014,06,17,03,12,9.60
2014,06,17,03,13,9.60
2014,06,17,03,14,9.50
2014,06,17,03,15,9.50
2014,06,17,03,16,9.60
2014,06,17,03,17,9.60
2014,06,17,03,18,9.60
2014,06,17,03,19,9.50
2014,06,17,03,20,9.50
2014,06,17,03,21,9.50
2014,06,17,03,22,9.40
2014,06,17,03,23,9.40
2014,06,17,03,24,9.40
2014,06,17,03,25,9.30
2014,06,17,03,26,9.30
2014,06,17,03,27,9.30
2014,06,17,03,28,9.30
2014,06,17,03,29,9.30
2014,06,17,03,30,9.30
2014,06,17,03,31,9.20
2014,06,17,03,32,9.20
2014,06,17,03,33,9.20
2014,06,17,03,34,9.20
2014,06,17,03,35,9.20
2014,06,17,03,36,9.20
2014,06,17,03,37,9.20
2014,06,17,03,38,9.20
2014,06,17,03,39,9.10
2014,06,17,03,40,9.20
2014,06,17,03,41,9.20
2014,06,17,03,42,9.10
2014,06,17,03,43,9.10
2014,06,17,03,44,9.10
2014,06,17,03,45,9.10
2014,06,17,03,46,9.10
2014,06,17,03,47,9.10
2014,06,17,03,48,9.10
2014,06,17,03,49,9.10
2014,06,17,03,50,9.10
2014,06,17,03,51,9.20
2014,06,17,03,52,9.20
2014,06,17,03,53,9.20
2014,06,17,03,54,9.20
2014,06,17,03,55,9.20
2014,06,17,03,56,9.20
2014,06,17,03,57,9.10
2014,06,17,03,58,9.10
2014,06,17,03,59,9.10
2014,06,17,04,00,9.10
2014,06,17,04,01,9.10
2014,06,17,04,02,9.10
2014,06,17,04,03,9.10
2014,06,17,04,04,9.10
2014,06,17,04,05,9.10
2014,06,17,04,06,9.10
2014,06,17,04,07,9.10
2014,06,17,04,08,9.10
2014,06,17,04,09,9.10
2014,06,17,04,10,9.10
2014,06,17,04,11,9.10
2014,06,17,04,12,9.10
2014,06,17,04,13,9.00
2014,06,17,04,14,9.00
2014,06,17,04,15,9.00
2014,06,17,04,16,9.00
2014,06,17,04,17,9.00
2014,06,17,04,18,9.00
2014,06,17,04,19,9.00
2014,06,17,04,20,8.90
2014,06,17,04,21,8.90
2014,06,17,04,22,8.90
2014,06,17,04,23,8.90
2014,06,17,04,24,8.90
2014,06,17,04,25,8.90
2014,06,17,04,26,8.90
2014,06,17,04,27,8.90
2014,06,17,04,28,8.90
2014,06,17,04,29,8.90
2014,06,17,04,30,8.90
2014,06,17,04,31,8.90
2014,06,17,04,32,8.90
2014,06,17,04,33,8.90
2014,06,17,04,34,8.90
2014,06,17,04,35,8.80
2014,06,17,04,36,8.90
2014,06,17,04,37,8.90
2014,06,17,04,38,8.90
2014,06,17,04,39,8.80
2014,06,17,04,40,8.90
2014,06,17,04,41,8.80
2014,06,17,04,42,8.80
2014,06,17,04,43,8.80
2014,06,17,04,44,8.80
2014,06,17,04,45,8.80
2014,06,17,04,46,8.90
2014,06,17,04,47,8.80
2014,06,17,04,48,8.80
2014,06,17,04,49,8.80
2014,06,17,04,50,8.80
2014,06,17,04,51,8.80
2014,06,17,04,52,8.80
2014,06,17,04,53,8.80
2014,06,17,04,54,8.80
2014,06,17,04,55,8.80
2014,06,17,04,56,8.70
2014,06,17,04,57,8.70
2014,06,17,04,58,8.70
2014,06,17,04,59,8.70
2014,06,17,05,00,8.70
2014,06,17,05,01,8.70
2014,06,17,05,02,8.70
2014,06,17,05,03,8.70
2014,06,17,05,04,8.70
2014,06,17,05,05,8.70
2014,06,17,05,06,8.70
2014,06,17,05,07,8.70
2014,06,17,05,08,8.60
2014,06,17,05,09,8.60
2014,06,17,05,10,8.60
2014,06,17,05,11,8.60
2014,06,17,05,12,8.60
2014,06,17,05,13,8.60
2014,06,17,05,14,8.60
2014,06,17,05,15,8.60
2014,06,17,05,16,8.60
2014,06,17,05,17,8.60
2014,06,17,05,18,8.60
2014,06,17,05,19,8.50
2014,06,17,05,20,8.50
2014,06,17,05,21,8.50
2014,06,17,05,22,8.50
2014,06,17,05,23,8.50
2014,06,17,05,24,8.50
2014,06,17,05,25,8.50
2014,06,17,05,26,8.50
2014,06,17,05,27,8.50
2014,06,17,05,28,8.50
2014,06,17,05,29,8.50
2014,06,17,05,30,8.50
2014,06,17,05,31,8.40
2014,06,17,05,32,8.40
2014,06,17,05,33,8.40
2014,06,17,05,34,8.40
2014,06,17,05,35,8.40
2014,06,17,05,36,8.40
2014,06,17,05,37,8.40
2014,06,17,05,38,8.40
2014,06,17,05,39,8.40
2014,06,17,05,40,8.40
2014,06,17,05,41,8.40
2014,06,17,05,42,8.40
2014,06,17,05,43,8.40
2014,06,17,05,44,8.40
2014,06,17,05,45,8.40
2014,06,17,05,46,8.40
2014,06,17,05,47,8.40
2014,06,17,05,48,8.40
2014,06,17,05,49,8.40
2014,06,17,05,50,8.40
2014,06,17,05,51,8.40
2014,06,17,05,52,8.40
2014,06,17,05,53,8.40
2014,06,17,05,54,8.50
2014,06,17,05,55,8.50
2014,06,17,05,56,8.50
2014,06,17,05,57,8.60
2014,06,17,05,58,8.60
2014,06,17,05,59,8.50
2014,06,17,06,00,8.60
2014,06,17,06,01,8.60
2014,06,17,06,02,8.60
2014,06,17,06,03,8.50
2014,06,17,06,04,8.50
2014,06,17,06,05,8.50
2014,06,17,06,06,8.50
2014,06,17,06,07,8.50
2014,06,17,06,08,8.50
2014,06,17,06,09,8.50
2014,06,17,06,10,8.50
2014,06,17,06,11,8.50
2014,06,17,06,12,8.50
2014,06,17,06,13,8.60
2014,06,17,06,14,8.60
2014,06,17,06,15,8.60
2014,06,17,06,16,8.60
2014,06,17,06,17,8.70
2014,06,17,06,18,8.70
2014,06,17,06,19,8.70
2014,06,17,06,20,8.70
2014,06,17,06,21,8.80
2014,06,17,06,22,8.80
2014,06,17,06,23,8.80
2014,06,17,06,24,8.80
2014,06,17,06,25,8.80
2014,06,17,06,26,8.80
2014,06,17,06,27,8.80
2014,06,17,06,28,8.80
2014,06,17,06,29,8.80
2014,06,17,06,30,8.80
2014,06,17,06,31,8.80
2014,06,17,06,32,8.80
2014,06,17,06,33,8.80
2014,06,17,06,34,8.80
2014,06,17,06,35,8.80
2014,06,17,06,36,8.80
2014,06,17,06,37,8.80
2014,06,17,06,38,8.80
2014,06,17,06,39,8.80
2014,06,17,06,40,8.80
2014,06,17,06,41,8.80
2014,06,17,06,42,8.80
2014,06,17,06,43,8.80
2014,06,17,06,44,8.80
2014,06,17,06,45,8.90
2014,06,17,06,46,8.90
2014,06,17,06,47,8.90
2014,06,17,06,48,9.00
2014,06,17,06,49,9.00
2014,06,17,06,50,9.10
2014,06,17,06,51,9.10
2014,06,17,06,52,9.20
2014,06,17,06,53,9.20
2014,06,17,06,54,9.30
2014,06,17,06,55,9.30
2014,06,17,06,56,9.30
2014,06,17,06,57,9.40
2014,06,17,06,58,9.50
2014,06,17,06,59,9.60
2014,06,17,07,00,9.60
2014,06,17,07,01,9.70
2014,06,17,07,02,9.80
2014,06,17,07,03,9.90
2014,06,17,07,04,10.10
2014,06,17,07,05,10.20
2014,06,17,07,06,10.30
2014,06,17,07,07,10.40
2014,06,17,07,08,10.60
2014,06,17,07,09,10.70
2014,06,17,07,10,10.80
2014,06,17,07,11,11.00
2014,06,17,07,12,11.10
2014,06,17,07,13,11.20
2014,06,17,07,14,11.40
2014,06,17,07,15,11.50
2014,06,17,07,16,11.60
2014,06,17,07,17,11.70
2014,06,17,07,18,11.80
2014,06,17,07,19,11.90
2014,06,17,07,20,12.10
2014,06,17,07,21,12.20
2014,06,17,07,22,12.30
2014,06,17,07,23,12.40
2014,06,17,07,24,12.50
2014,06,17,07,25,12.60
2014,06,17,07,26,12.70
2014,06,17,07,27,12.80
2014,06,17,07,28,12.90
2014,06,17,07,29,12.90
2014,06,17,07,30,13.00
2014,06,17,07,31,13.10
2014,06,17,07,32,13.10
2014,06,17,07,33,13.20
2014,06,17,07,34,13.30
2014,06,17,07,35,13.30
2014,06,17,07,36,13.30
2014,06,17,07,37,13.40
2014,06,17,07,38,13.40
2014,06,17,07,39,13.40
2014,06,17,07,40,13.40
2014,06,17,07,41,13.50
2014,06,17,07,42,13.60
2014,06,17,07,43,13.70
2014,06,17,07,44,13.70
2014,06,17,07,45,13.80
2014,06,17,07,46,13.80
2014,06,17,07,47,13.90
2014,06,17,07,48,13.90
2014,06,17,07,49,13.90
2014,06,17,07,50,14.00
2014,06,17,07,51,14.00
2014,06,17,07,52,14.00
2014,06,17,07,53,13.90
2014,06,17,07,54,14.00
2014,06,17,07,55,14.00
2014,06,17,07,56,14.10
2014,06,17,07,57,14.10
2014,06,17,07,58,14.00
2014,06,17,07,59,14.00
2014,06,17,08,00,14.00
2014,06,17,08,01,14.00
2014,06,17,08,02,14.00
2014,06,17,08,03,14.00
2014,06,17,08,04,14.10
2014,06,17,08,05,14.10
2014,06,17,08,06,14.10
2014,06,17,08,07,14.20
2014,06,17,08,08,14.30
2014,06,17,08,09,14.30
2014,06,17,08,10,14.40
2014,06,17,08,11,14.40
2014,06,17,08,12,14.40
2014,06,17,08,13,14.40
2014,06,17,08,14,14.40
2014,06,17,08,15,14.50
2014,06,17,08,16,14.60
2014,06,17,08,17,14.60
2014,06,17,08,18,14.70
2014,06,17,08,19,14.70
2014,06,17,08,20,14.70
2014,06,17,08,21,14.70
2014,06,17,08,22,14.80
2014,06,17,08,23,14.70
2014,06,17,08,24,14.70
2014,06,17,08,25,14.60
2014,06,17,08,26,14.60
2014,06,17,08,27,14.60
2014,06,17,08,28,14.60
2014,06,17,08,29,14.60
2014,06,17,08,30,14.70
2014,06,17,08,31,14.70
2014,06,17,08,32,14.70
2014,06,17,08,33,14.70
2014,06,17,08,34,14.80
2014,06,17,08,35,14.80
2014,06,17,08,36,14.80
2014,06,17,08,37,14.90
2014,06,17,08,38,15.00
2014,06,17,08,39,15.00
2014,06,17,08,40,15.10
2014,06,17,08,41,15.10
2014,06,17,08,42,15.10
2014,06,17,08,43,15.10
2014,06,17,08,44,15.10
2014,06,17,08,45,15.10
2014,06,17,08,46,15.10
2014,06,17,08,47,15.10
2014,06,17,08,48,15.10
2014,06,17,08,49,15.10
2014,06,17,08,50,15.10
2014,06,17,08,51,15.10
2014,06,17,08,52,15.10
2014,06,17,08,53,15.10
2014,06,17,08,54,15.20
2014,06,17,08,55,15.30
2014,06,17,08,56,15.40
2014,06,17,08,57,15.40
2014,06,17,08,58,15.50
2014,06,17,08,59,15.50
2014,06,17,09,00,15.50
2014,06,17,09,01,15.50
2014,06,17,09,02,15.60
2014,06,17,09,03,15.60
2014,06,17,09,04,15.60
2014,06,17,09,05,15.60
2014,06,17,09,06,15.60
2014,06,17,09,07,15.60
2014,06,17,09,08,15.70
2014,06,17,09,09,15.80
2014,06,17,09,10,15.90
2014,06,17,09,11,16.00
2014,06,17,09,12,16.10
2014,06,17,09,13,16.10
2014,06,17,09,14,16.10
2014,06,17,09,15,16.10
2014,06,17,09,16,16.10
2014,06,17,09,17,16.10
2014,06,17,09,18,16.10
2014,06,17,09,19,16.10
2014,06,17,09,20,16.10
2014,06,17,09,21,16.10
2014,06,17,09,22,16.10
2014,06,17,09,23,16.10
2014,06,17,09,24,16.10
2014,06,17,09,25,16.10
2014,06,17,09,26,16.10
2014,06,17,09,27,16.10
2014,06,17,09,28,16.10
2014,06,17,09,29,16.10
2014,06,17,09,30,16.10
2014,06,17,09,31,16.10
2014,06,17,09,32,16.10
2014,06,17,09,33,16.10
2014,06,17,09,34,16.20
2014,06,17,09,35,16.20
2014,06,17,09,36,16.20
2014,06,17,09,37,16.20
2014,06,17,09,38,16.20
2014,06,17,09,39,16.20
2014,06,17,09,40,16.20
2014,06,17,09,41,16.10
2014,06,17,09,42,16.10
2014,06,17,09,43,16.10
2014,06,17,09,44,16.10
2014,06,17,09,45,16.10
2014,06,17,09,46,16.10
2014,06,17,09,47,16.00
2014,06,17,09,48,16.00
2014,06,17,09,49,15.90
2014,06,17,09,50,15.90
2014,06,17,09,51,15.90
2014,06,17,09,52,15.90
2014,06,17,09,53,15.90
2014,06,17,09,54,15.90
2014,06,17,09,55,15.90
2014,06,17,09,56,15.80
2014,06,17,09,57,15.80
2014,06,17,09,58,15.80
2014,06,17,09,59,15.90
2014,06,17,10,00,16.00
2014,06,17,10,01,16.10
2014,06,17,10,02,16.10
2014,06,17,10,03,16.10
2014,06,17,10,04,16.20
2014,06,17,10,05,16.20
2014,06,17,10,06,16.20
2014,06,17,10,07,16.20
2014,06,17,10,08,16.10
2014,06,17,10,09,16.10
2014,06,17,10,10,16.20
2014,06,17,10,11,16.30
2014,06,17,10,12,16.40
2014,06,17,10,13,16.50
2014,06,17,10,14,16.60
2014,06,17,10,15,16.60
2014,06,17,10,16,16.70
2014,06,17,10,17,16.70
2014,06,17,10,18,16.70
2014,06,17,10,19,16.70
2014,06,17,10,20,16.80
2014,06,17,10,21,16.70
2014,06,17,10,22,16.70
2014,06,17,10,23,16.60
2014,06,17,10,24,16.50
2014,06,17,10,25,16.40
2014,06,17,10,26,16.40
2014,06,17,10,27,16.40
2014,06,17,10,28,16.50
2014,06,17,10,29,16.60
2014,06,17,10,30,16.60
2014,06,17,10,31,16.50
2014,06,17,10,32,16.50
2014,06,17,10,33,16.50
2014,06,17,10,34,16.50
2014,06,17,10,35,16.60
2014,06,17,10,36,16.70
2014,06,17,10,37,16.70
2014,06,17,10,38,16.60
2014,06,17,10,39,16.60
2014,06,17,10,40,16.50
2014,06,17,10,41,16.50
2014,06,17,10,42,16.60
2014,06,17,10,43,16.60
2014,06,17,10,44,16.60
2014,06,17,10,45,16.70
2014,06,17,10,46,16.70
2014,06,17,10,47,16.90
2014,06,17,10,48,17.00
2014,06,17,10,49,17.20
2014,06,17,10,50,17.30
2014,06,17,10,51,17.30
2014,06,17,10,52,17.30
2014,06,17,10,53,17.30
2014,06,17,10,54,17.30
2014,06,17,10,55,17.30
2014,06,17,10,56,17.20
2014,06,17,10,57,17.20
2014,06,17,10,58,17.10
2014,06,17,10,59,17.10
2014,06,17,11,00,17.10
2014,06,17,11,01,17.10
2014,06,17,11,02,17.10
2014,06,17,11,03,17.10
2014,06,17,11,04,17.20
2014,06,17,11,05,17.30
2014,06,17,11,06,17.50
2014,06,17,11,07,17.60
2014,06,17,11,08,17.60
2014,06,17,11,09,17.70
2014,06,17,11,10,17.70
2014,06,17,11,11,17.70
2014,06,17,11,12,17.80
2014,06,17,11,13,17.80
2014,06,17,11,14,17.80
2014,06,17,11,15,17.80
2014,06,17,11,16,17.60
2014,06,17,11,17,17.40
2014,06,17,11,18,17.30
2014,06,17,11,19,17.30
2014,06,17,11,20,17.40
2014,06,17,11,21,17.50
2014,06,17,11,22,17.60
2014,06,17,11,23,17.60
2014,06,17,11,24,17.50
2014,06,17,11,25,17.50
2014,06,17,11,26,17.50
2014,06,17,11,27,17.50
2014,06,17,11,28,17.60
2014,06,17,11,29,17.70
2014,06,17,11,30,17.80
2014,06,17,11,31,17.90
2014,06,17,11,32,17.90
2014,06,17,11,33,17.80
2014,06,17,11,34,17.80
2014,06,17,11,35,17.70
2014,06,17,11,36,17.70
2014,06,17,11,37,17.60
2014,06,17,11,38,17.60
2014,06,17,11,39,17.50
2014,06,17,11,40,17.40
2014,06,17,11,41,17.40
2014,06,17,11,42,17.30
2014,06,17,11,43,17.30
2014,06,17,11,44,17.20
2014,06,17,11,45,17.20
2014,06,17,11,46,17.10
2014,06,17,11,47,17.10
2014,06,17,11,48,17.10
2014,06,17,11,49,17.10
2014,06,17,11,50,17.20
2014,06,17,11,51,17.40
2014,06,17,11,52,17.50
2014,06,17,11,53,17.60
2014,06,17,11,54,17.70
2014,06,17,11,55,17.60
2014,06,17,11,56,17.40
2014,06,17,11,57,17.40
2014,06,17,11,58,17.30
2014,06,17,11,59,17.30
2014,06,17,12,00,17.30
2014,06,17,12,01,17.30
2014,06,17,12,02,17.30
2014,06,17,12,03,17.30
2014,06,17,12,04,17.30
2014,06,17,12,05,17.30
2014,06,17,12,06,17.40
2014,06,17,12,07,17.40
2014,06,17,12,08,17.30
2014,06,17,12,09,17.40
2014,06,17,12,10,17.50
2014,06,17,12,11,17.60
2014,06,17,12,12,17.60
2014,06,17,12,13,17.60
2014,06,17,12,14,17.50
2014,06,17,12,15,17.50
2014,06,17,12,16,17.40
2014,06,17,12,17,17.40
2014,06,17,12,18,17.30
2014,06,17,12,19,17.20
2014,06,17,12,20,17.10
2014,06,17,12,21,17.10
2014,06,17,12,22,17.10
2014,06,17,12,23,17.10
2014,06,17,12,24,17.10
2014,06,17,12,25,17.10
2014,06,17,12,26,17.20
2014,06,17,12,27,17.20
2014,06,17,12,28,17.20
2014,06,17,12,29,17.20
2014,06,17,12,30,17.20
2014,06,17,12,31,17.20
2014,06,17,12,32,17.30
2014,06,17,12,33,17.30
2014,06,17,12,34,17.40
2014,06,17,12,35,17.40
2014,06,17,12,36,17.40
2014,06,17,12,37,17.40
2014,06,17,12,38,17.40
2014,06,17,12,39,17.40
2014,06,17,12,40,17.40
2014,06,17,12,41,17.40
2014,06,17,12,42,17.30
2014,06,17,12,43,17.30
2014,06,17,12,44,17.30
2014,06,17,12,45,17.30
2014,06,17,12,46,17.30
2014,06,17,12,47,17.30
2014,06,17,12,48,17.30
2014,06,17,12,49,17.30
2014,06,17,12,50,17.30
2014,06,17,12,51,17.40
2014,06,17,12,52,17.50
2014,06,17,12,53,17.50
2014,06,17,12,54,17.60
2014,06,17,12,55,17.70
2014,06,17,12,56,17.80
2014,06,17,12,57,18.00
2014,06,17,12,58,18.20
2014,06,17,12,59,18.30
2014,06,17,13,00,18.30
2014,06,17,13,01,18.40
2014,06,17,13,02,18.50
2014,06,17,13,03,18.60
2014,06,17,13,04,18.50
2014,06,17,13,05,18.40
2014,06,17,13,06,18.30
2014,06,17,13,07,18.30
2014,06,17,13,08,18.20
2014,06,17,13,09,18.20
2014,06,17,13,10,18.10
2014,06,17,13,11,18.10
2014,06,17,13,12,18.00
2014,06,17,13,13,18.00
2014,06,17,13,14,17.90
2014,06,17,13,15,17.90
2014,06,17,13,16,18.00
2014,06,17,13,17,18.10
2014,06,17,13,18,18.00
2014,06,17,13,19,17.90
2014,06,17,13,20,17.90
2014,06,17,13,21,17.90
2014,06,17,13,22,17.90
2014,06,17,13,23,18.00
2014,06,17,13,24,18.10
2014,06,17,13,25,18.20
2014,06,17,13,26,18.30
2014,06,17,13,27,18.30
2014,06,17,13,28,18.40
2014,06,17,13,29,18.40
2014,06,17,13,30,18.50
2014,06,17,13,31,18.60
2014,06,17,13,32,18.60
2014,06,17,13,33,18.70
2014,06,17,13,34,18.80
2014,06,17,13,35,18.80
2014,06,17,13,36,18.90
2014,06,17,13,37,18.90
2014,06,17,13,38,19.00
2014,06,17,13,39,19.00
2014,06,17,13,40,19.00
2014,06,17,13,41,19.00
2014,06,17,13,42,19.00
2014,06,17,13,43,19.10
2014,06,17,13,44,19.10
2014,06,17,13,45,19.10
2014,06,17,13,46,19.10
2014,06,17,13,47,19.20
2014,06,17,13,48,19.30
2014,06,17,13,49,19.40
2014,06,17,13,50,19.50
2014,06,17,13,51,19.60
2014,06,17,13,52,19.60
2014,06,17,13,53,19.60
2014,06,17,13,54,19.70
2014,06,17,13,55,19.70
2014,06,17,13,56,19.70
2014,06,17,13,57,19.60
2014,06,17,13,58,19.40
2014,06,17,13,59,19.40
2014,06,17,14,00,19.30
2014,06,17,14,01,19.40
2014,06,17,14,02,19.50
2014,06,17,14,03,19.50
2014,06,17,14,04,19.60
2014,06,17,14,05,19.70
2014,06,17,14,06,19.80
2014,06,17,14,07,19.80
2014,06,17,14,08,19.90
2014,06,17,14,09,20.00
2014,06,17,14,10,20.00
2014,06,17,14,11,20.10
2014,06,17,14,12,20.10
2014,06,17,14,13,20.20
2014,06,17,14,14,20.20
2014,06,17,14,15,20.20
2014,06,17,14,16,20.20
2014,06,17,14,17,20.20
2014,06,17,14,18,20.20
2014,06,17,14,19,20.20
2014,06,17,14,20,20.10
2014,06,17,14,21,20.10
2014,06,17,14,22,20.00
2014,06,17,14,23,20.00
2014,06,17,14,24,19.80
2014,06,17,14,25,19.80
2014,06,17,14,26,19.80
2014,06,17,14,27,19.80
2014,06,17,14,28,19.90
2014,06,17,14,29,19.90
2014,06,17,14,30,19.90
2014,06,17,14,31,20.00
2014,06,17,14,32,20.00
2014,06,17,14,33,20.00
2014,06,17,14,34,20.00
2014,06,17,14,35,20.10
2014,06,17,14,36,20.10
2014,06,17,14,37,20.20
2014,06,17,14,38,20.30
2014,06,17,14,39,20.30
2014,06,17,14,40,20.40
2014,06,17,14,41,20.40
2014,06,17,14,42,20.50
2014,06,17,14,43,20.50
2014,06,17,14,44,20.50
2014,06,17,14,45,20.40
2014,06,17,14,46,20.40
2014,06,17,14,47,20.40
2014,06,17,14,48,20.40
2014,06,17,14,49,20.40
2014,06,17,14,50,20.30
2014,06,17,14,51,20.20
2014,06,17,14,52,20.10
2014,06,17,14,53,20.10
2014,06,17,14,54,20.10
2014,06,17,14,55,20.10
2014,06,17,14,56,20.00
2014,06,17,14,57,19.90
2014,06,17,14,58,19.90
2014,06,17,14,59,19.80
2014,06,17,15,00,19.70
2014,06,17,15,01,19.70
2014,06,17,15,02,19.70
2014,06,17,15,03,19.60
2014,06,17,15,04,19.60
2014,06,17,15,05,19.50
2014,06,17,15,06,19.50
2014,06,17,15,07,19.40
2014,06,17,15,08,19.30
2014,06,17,15,09,19.20
2014,06,17,15,10,19.20
2014,06,17,15,11,19.20
2014,06,17,15,12,19.30
2014,06,17,15,13,19.40
2014,06,17,15,14,19.40
2014,06,17,15,15,19.50
2014,06,17,15,16,19.60
2014,06,17,15,17,19.60
2014,06,17,15,18,19.60
2014,06,17,15,19,19.70
2014,06,17,15,20,19.70
2014,06,17,15,21,19.70
2014,06,17,15,22,19.70
2014,06,17,15,23,19.80
2014,06,17,15,24,19.80
2014,06,17,15,25,19.80
2014,06,17,15,26,19.80
2014,06,17,15,27,19.80
2014,06,17,15,28,19.90
2014,06,17,15,29,20.00
2014,06,17,15,30,20.20
2014,06,17,15,31,20.30
2014,06,17,15,32,20.40
2014,06,17,15,33,20.50
2014,06,17,15,34,20.50
2014,06,17,15,35,20.40
2014,06,17,15,36,20.40
2014,06,17,15,37,20.40
2014,06,17,15,38,20.40
2014,06,17,15,39,20.40
2014,06,17,15,40,20.40
2014,06,17,15,41,20.40
2014,06,17,15,42,20.40
2014,06,17,15,43,20.40
2014,06,17,15,44,20.50
2014,06,17,15,45,20.50
2014,06,17,15,46,20.60
2014,06,17,15,47,20.70
2014,06,17,15,48,20.80
2014,06,17,15,49,20.80
2014,06,17,15,50,20.80
2014,06,17,15,51,20.80
2014,06,17,15,52,20.80
2014,06,17,15,53,20.80
2014,06,17,15,54,20.80
2014,06,17,15,55,20.80
2014,06,17,15,56,20.80
2014,06,17,15,57,20.90
2014,06,17,15,58,20.90
2014,06,17,15,59,20.90
2014,06,17,16,00,21.00
2014,06,17,16,01,21.00
2014,06,17,16,02,21.10
2014,06,17,16,03,21.10
2014,06,17,16,04,21.10
2014,06,17,16,05,21.10
2014,06,17,16,06,21.00
2014,06,17,16,07,21.00
2014,06,17,16,08,20.90
2014,06,17,16,09,20.90
2014,06,17,16,10,20.90
2014,06,17,16,11,21.00
2014,06,17,16,12,21.00
2014,06,17,16,13,21.10
2014,06,17,16,14,21.10
2014,06,17,16,15,21.10
2014,06,17,16,16,21.20
2014,06,17,16,17,21.20
2014,06,17,16,18,21.20
2014,06,17,16,19,21.10
2014,06,17,16,20,21.10
2014,06,17,16,21,21.00
2014,06,17,16,22,21.00
2014,06,17,16,23,20.90
2014,06,17,16,24,20.90
2014,06,17,16,25,20.80
2014,06,17,16,26,20.80
2014,06,17,16,27,20.80
2014,06,17,16,28,20.70
2014,06,17,16,29,20.70
2014,06,17,16,30,20.70
2014,06,17,16,31,20.70
2014,06,17,16,32,20.60
2014,06,17,16,33,20.50
2014,06,17,16,34,20.40
2014,06,17,16,35,20.20
2014,06,17,16,36,20.20
2014,06,17,16,37,20.20
2014,06,17,16,38,20.20
2014,06,17,16,39,20.10
2014,06,17,16,40,20.10
2014,06,17,16,41,20.10
2014,06,17,16,42,20.10
2014,06,17,16,43,20.00
2014,06,17,16,44,20.00
2014,06,17,16,45,20.00
2014,06,17,16,46,20.00
2014,06,17,16,47,20.10
2014,06,17,16,48,20.10
2014,06,17,16,49,20.10
2014,06,17,16,50,20.10
2014,06,17,16,51,20.10
2014,06,17,16,52,20.10
2014,06,17,16,53,20.10
2014,06,17,16,54,20.10
2014,06,17,16,55,20.10
2014,06,17,16,56,20.10
2014,06,17,16,57,20.10
2014,06,17,16,58,20.00
2014,06,17,16,59,20.00
2014,06,17,17,00,19.90
2014,06,17,17,01,19.90
2014,06,17,17,02,19.80
2014,06,17,17,03,19.70
2014,06,17,17,04,19.70
2014,06,17,17,05,19.60
2014,06,17,17,06,19.60
2014,06,17,17,07,19.60
2014,06,17,17,08,19.70
2014,06,17,17,09,19.70
2014,06,17,17,10,19.70
2014,06,17,17,11,19.70
2014,06,17,17,12,19.70
2014,06,17,17,13,19.70
2014,06,17,17,14,19.60
2014,06,17,17,15,19.60
2014,06,17,17,16,19.60
2014,06,17,17,17,19.60
2014,06,17,17,18,19.50
2014,06,17,17,19,19.50
2014,06,17,17,20,19.50
2014,06,17,17,21,19.50
2014,06,17,17,22,19.50
2014,06,17,17,23,19.50
2014,06,17,17,24,19.60
2014,06,17,17,25,19.60
2014,06,17,17,26,19.60
2014,06,17,17,27,19.60
2014,06,17,17,28,19.60
2014,06,17,17,29,19.70
2014,06,17,17,30,19.70
2014,06,17,17,31,19.60